• In United Kingdom
  • List of Countries
  • For 7 days
  • Water Temperature
  • Satellite Maps
  • Weather Map
  • Weather Widgets
  • user-avatar
    Login

    Hourly Weather Chihuahua

    Today, 22 September, Friday

    Time Temperature Precipitation Wind Pressure Humidity
    00:00 +27°C° 0 mm 1 mps 641 mmHg 45%
    01:00 +26°C° 0 mm 1 mps 641 mmHg 46%
    02:00 +26°C° 0 mm 1 mps 641 mmHg 48%
    03:00 +25°C° 0 mm 1 mps 640 mmHg 51%
    04:00 +24°C° 0 mm 2 mps 640 mmHg 54%
    05:00 +24°C° 0 mm 2 mps 640 mmHg 57%
    06:00 +25°C° 0 mm 2 mps 640 mmHg 54%
    07:00 +26°C° 0 mm 2 mps 641 mmHg 50%
    08:00 +27°C° 0 mm 3 mps 641 mmHg 47%
    09:00 +29°C° 0 mm 3 mps 642 mmHg 43%
    10:00 +30°C° 0 mm 4 mps 642 mmHg 38%
    11:00 +33°C° 0 mm 5 mps 642 mmHg 34%
    12:00 +33°C° 0 mm 5 mps 642 mmHg 33%
    13:00 +33°C° 0 mm 4 mps 641 mmHg 32%
    14:00 +34°C° 0 mm 4 mps 641 mmHg 31%
    15:00 +33°C° 0 mm 4 mps 640 mmHg 34%
    16:00 +31°C° 0 mm 3 mps 640 mmHg 36%
    17:00 +30°C° 0 mm 3 mps 639 mmHg 39%
    18:00 +30°C° 0.1 mm 3 mps 640 mmHg 42%
    19:00 +29°C° 0.1 mm 3 mps 640 mmHg 45%
    20:00 +28°C° 0.1 mm 3 mps 640 mmHg 48%
    21:00 +27°C° 0.3 mm 3 mps 640 mmHg 51%
    22:00 +26°C° 0.3 mm 3 mps 640 mmHg 54%
    23:00 +26°C° 0.3 mm 3 mps 640 mmHg 58%

    Tomorrow, 23 September, Saturday

    Time Temperature Precipitation Wind Pressure Humidity
    00:00 +25°C° 0.4 mm 3 mps 640 mmHg 61%
    01:00 +24°C° 0.4 mm 2 mps 639 mmHg 65%
    02:00 +24°C° 0.4 mm 2 mps 639 mmHg 68%
    03:00 +23°C° 0.5 mm 2 mps 639 mmHg 71%
    04:00 +23°C° 0.5 mm 1 mps 638 mmHg 73%
    05:00 +22°C° 0.5 mm 1 mps 638 mmHg 76%
    06:00 +23°C° 0.6 mm 1 mps 639 mmHg 73%
    07:00 +24°C° 0.6 mm 2 mps 639 mmHg 69%
    08:00 +24°C° 0.6 mm 2 mps 640 mmHg 66%
    09:00 +26°C° 0.4 mm 2 mps 640 mmHg 61%
    10:00 +27°C° 0.4 mm 3 mps 640 mmHg 55%
    11:00 +28°C° 0.4 mm 3 mps 640 mmHg 50%
    12:00 +29°C° 0.1 mm 4 mps 640 mmHg 45%
    13:00 +30°C° 0.1 mm 4 mps 639 mmHg 40%
    14:00 +32°C° 0.1 mm 4 mps 639 mmHg 35%
    15:00 +31°C° 0 mm 3 mps 639 mmHg 35%
    16:00 +31°C° 0 mm 3 mps 639 mmHg 35%
    17:00 +31°C° 0 mm 2 mps 638 mmHg 35%
    18:00 +30°C° 0.1 mm 3 mps 638 mmHg 41%
    19:00 +28°C° 0.1 mm 3 mps 638 mmHg 46%
    20:00 +26°C° 0.1 mm 3 mps 638 mmHg 51%
    21:00 +25°C° 0.3 mm 3 mps 639 mmHg 55%
    22:00 +24°C° 0.3 mm 3 mps 639 mmHg 59%
    23:00 +24°C° 0.3 mm 3 mps 639 mmHg 63%

    Day after tomorrow, 24 September, Sunday

    Time Temperature Precipitation Wind Pressure Humidity
    00:00 +23°C° 0.1 mm 2 mps 638 mmHg 65%
    01:00 +23°C° 0.1 mm 2 mps 638 mmHg 66%
    02:00 +21°C° 0.1 mm 2 mps 638 mmHg 67%
    03:00 +22°C° 0 mm 1 mps 638 mmHg 69%
    04:00 +21°C° 0 mm 1 mps 638 mmHg 71%
    05:00 +21°C° 0 mm 1 mps 637 mmHg 73%
    06:00 +22°C° 0 mm 1 mps 638 mmHg 69%
    07:00 +23°C° 0 mm 1 mps 639 mmHg 65%
    08:00 +24°C° 0 mm 1 mps 639 mmHg 61%
    09:00 +25°C° 0 mm 1 mps 639 mmHg 56%
    10:00 +27°C° 0 mm 1 mps 639 mmHg 51%
    11:00 +28°C° 0 mm 1 mps 639 mmHg 46%
    12:00 +29°C° 0 mm 1 mps 639 mmHg 42%
    13:00 +30°C° 0 mm 1 mps 639 mmHg 38%
    14:00 +31°C° 0 mm 1 mps 638 mmHg 34%
    15:00 +31°C° 0 mm 2 mps 638 mmHg 34%
    16:00 +31°C° 0 mm 2 mps 638 mmHg 34%
    17:00 +30°C° 0 mm 2 mps 638 mmHg 34%
    18:00 +29°C° 0 mm 2 mps 638 mmHg 40%
    19:00 +27°C° 0 mm 2 mps 638 mmHg 47%
    20:00 +26°C° 0 mm 2 mps 638 mmHg 53%
    21:00 +25°C° 0.3 mm 2 mps 638 mmHg 55%
    22:00 +25°C° 0.3 mm 2 mps 638 mmHg 57%
    23:00 +24°C° 0.3 mm 1 mps 638 mmHg 59%

    25 September, Monday

    Time Temperature Precipitation Wind Pressure Humidity
    00:00 +23°C° 0.2 mm 1 mps 638 mmHg 60%
    01:00 +23°C° 0.2 mm 1 mps 638 mmHg 62%
    02:00 +22°C° 0.2 mm 1 mps 637 mmHg 63%
    03:00 +22°C° 0 mm 1 mps 637 mmHg 63%
    04:00 +22°C° 0 mm 1 mps 637 mmHg 63%
    05:00 +20°C° 0 mm 2 mps 637 mmHg 63%
    06:00 +21°C° 0 mm 2 mps 638 mmHg 58%
    07:00 +23°C° 0 mm 2 mps 638 mmHg 53%
    08:00 +24°C° 0 mm 2 mps 639 mmHg 48%
    09:00 +25°C° 0 mm 2 mps 639 mmHg 46%
    10:00 +27°C° 0 mm 1 mps 639 mmHg 43%
    11:00 +28°C° 0 mm 1 mps 639 mmHg 40%
    12:00 +29°C° 0 mm 1 mps 638 mmHg 36%
    13:00 +30°C° 0 mm 1 mps 638 mmHg 31%
    14:00 +31°C° 0 mm 1 mps 637 mmHg 26%
    15:00 +31°C° 0 mm 1 mps 638 mmHg 26%
    16:00 +31°C° 0 mm 1 mps 638 mmHg 26%
    17:00 +31°C° 0 mm 2 mps 638 mmHg 26%
    18:00 +29°C° 0 mm 2 mps 638 mmHg 32%
    19:00 +27°C° 0 mm 2 mps 638 mmHg 37%
    20:00 +25°C° 0 mm 3 mps 638 mmHg 42%
    21:00 +25°C° 0.4 mm 2 mps 638 mmHg 46%
    22:00 +24°C° 0.4 mm 2 mps 638 mmHg 50%
    23:00 +23°C° 0.4 mm 1 mps 638 mmHg 54%

    26 September, Tuesday

    Time Temperature Precipitation Wind Pressure Humidity
    00:00 +23°C° 0.1 mm 2 mps 638 mmHg 55%
    01:00 +21°C° 0.1 mm 2 mps 637 mmHg 55%
    02:00 +21°C° 0.1 mm 2 mps 637 mmHg 56%
    03:00 +21°C° 0 mm 2 mps 637 mmHg 55%
    04:00 +20°C° 0 mm 2 mps 637 mmHg 55%
    05:00 +20°C° 0 mm 2 mps 637 mmHg 54%
    06:00 +21°C° 0 mm 2 mps 638 mmHg 50%
    07:00 +23°C° 0 mm 2 mps 638 mmHg 46%
    08:00 +24°C° 0 mm 2 mps 639 mmHg 42%
    09:00 +25°C° 0 mm 2 mps 639 mmHg 41%
    10:00 +27°C° 0 mm 1 mps 639 mmHg 41%
    11:00 +28°C° 0 mm 1 mps 639 mmHg 41%
    12:00 +29°C° 0 mm 1 mps 639 mmHg 37%
    13:00 +29°C° 0 mm 1 mps 638 mmHg 34%
    14:00 +30°C° 0 mm 1 mps 638 mmHg 30%
    15:00 +30°C° 0 mm 1 mps 638 mmHg 31%
    16:00 +30°C° 0 mm 1 mps 638 mmHg 31%
    17:00 +30°C° 0 mm 1 mps 638 mmHg 31%
    18:00 +28°C° 0 mm 2 mps 639 mmHg 36%
    19:00 +27°C° 0 mm 2 mps 639 mmHg 41%
    20:00 +26°C° 0 mm 2 mps 639 mmHg 46%
    21:00 +25°C° 0 mm 2 mps 639 mmHg 47%
    22:00 +25°C° 0 mm 1 mps 639 mmHg 49%
    23:00 +24°C° 0 mm 1 mps 639 mmHg 51%

    27 September, Wednesday

    Time Temperature Precipitation Wind Pressure Humidity
    00:00 +24°C° 0 mm 1 mps 639 mmHg 51%
    01:00 +24°C° 0 mm 1 mps 639 mmHg 51%
    02:00 +23°C° 0 mm 1 mps 639 mmHg 51%
    03:00 +23°C° 0 mm 1 mps 639 mmHg 52%
    04:00 +22°C° 0 mm 1 mps 639 mmHg 54%
    05:00 +22°C° 0 mm 1 mps 639 mmHg 55%
    06:00 +23°C° 0 mm 2 mps 640 mmHg 54%
    07:00 +24°C° 0 mm 2 mps 640 mmHg 54%
    08:00 +25°C° 0 mm 2 mps 641 mmHg 53%
    09:00 +26°C° 0.1 mm 2 mps 641 mmHg 50%
    10:00 +27°C° 0.1 mm 2 mps 641 mmHg 47%
    11:00 +28°C° 0.1 mm 3 mps 641 mmHg 44%
    12:00 +29°C° 0 mm 3 mps 641 mmHg 42%
    13:00 +29°C° 0 mm 2 mps 640 mmHg 40%
    14:00 +30°C° 0 mm 2 mps 640 mmHg 38%
    15:00 +29°C° 0 mm 3 mps 640 mmHg 38%
    16:00 +29°C° 0 mm 3 mps 640 mmHg 39%
    17:00 +29°C° 0 mm 3 mps 640 mmHg 39%
    18:00 +28°C° 0 mm 4 mps 640 mmHg 43%
    19:00 +27°C° 0 mm 4 mps 641 mmHg 46%
    20:00 +26°C° 0 mm 5 mps 641 mmHg 50%
    21:00 +25°C° 0 mm 4 mps 641 mmHg 57%
    22:00 +24°C° 0 mm 3 mps 641 mmHg 63%
    23:00 +23°C° 0 mm 2 mps 641 mmHg 69%
    Show more